COSMOS 2251 DEB, 34626

Orbit data source: Space-Track

COSMOS 2251 DEB, 34626 is space debris in LEO originally from a launch on Wed, 16 Jun 1993 UTC launched from the Plesetsk Missile And Space Complex (PKMTR). The debris from Iridium 33, an American commercial communications satellite, has been tracked extensively since its accidental collision with the defunct Russian satellite Cosmos 2251 in 2009. This event, occurring at high speed in low Earth orbit (LEO), generated thousands of pieces of space debris, significantly increasing the risk of further collisions. The Iridium 33 debris cloud has impacted space traffic management and orbital debris mitigation strategies, making it a subject of ongoing study in space situational awareness.

Loading next visibility...
Identifier
34626, 1993-036WX
Orbit
LEO
Country
Flag of CISCIS
Related business
Manufacturer
Unknown
Mission
Spacecraft
Bus & Motor
Unknown
Mass
Unknown
Launch date (UTC)
1993-06-16 (33 years ago)
Launch vehicle
Unknown
Launch site
Plesetsk Missile And Space Complex (PKMTR)
Object type
Payload
Rocket body
Debris
Shape & HBR
Unknown shape, 0.1 m
Radar Cross Section
Small (<0.1 m²)

Expand to show TLE details & history
Last TLE update: 7 hours ago

TLE from 7 hours ago
0 COSMOS 2251 DEB
1 34626U 93036WX  26062.35601169  .00007107  00000-0  10949-2 0  9999
2 34626  74.0487 167.0135 0028915 241.8394 174.7715 14.73319418903311
Epoch: 2026-03-03T08:32Z
TLE epoch observation values (Epoch: 2026-03-03T08:32:39.410Z)
Latitude
53.5354°
Longitude
-99.66261°
Altitude
679.166 km
Speed
7.512 km/s
True Right ascension
12h 38m 33s
True Declination
53° 22' 09"
Sunlit
Object was in full shadow at epoch
Visualization orbit readout
Latitude
Unknown
Longitude
Unknown
Altitude
Unknown
Speed
Unknown
Apparent Right ascension
Unknown
Apparent Declination
Unknown
Sunlit
N/A
Visualization observer readout
Local Sidereal Time
19:33:17
Azimuth
Unknown
Elevation
Unknown
Doppler factor
Unknown
Orbital elements
Apogee altitude
668.389 km
Perigee altitude
627.757 km
Semi-major axis
7,026.21 km
Eccentricity
0.00289
Inclination
74.0487°
RAAN
167.0135°
Arg. of periapsis
241.8394°
True anomaly
174.80159°
Mean anomaly
174.7715°
Eccentric anomaly
174.78655°
Mean motion
3.6852 °/min
Orbital period
97.69 mins
BSTAR
0.0010949
Loading maneuver chart data...
Computing Atmospheric mass density...

Documentation

Showing up to 5 results
|